Location: Newark
(40.3500°N, 15.2333°E)
Time: 06:00:35
(UTC+00:00)

Starlink Launch 2 leader - Visible Passes

Search period start: 08 December 2019 00:00
Search period end: 18 December 2019 00:00
Orbit: 279 x 281 km, 53.0° (Epoch: 13 November)

Date Brightness Start Highest point End Pass type
(mag) Time Alt. Az. Time Alt. Az. Time Alt. Az.
08 Dec 2.5 05:18:06 14° NW 05:20:05 63° NE 05:22:31 10° ESE visible
09 Dec 2.5 05:20:11 15° WNW 05:21:59 51° SW 05:24:23 10° SE visible
10 Dec 6.1 03:52:12 10° E 03:52:12 10° E 03:52:14 10° E visible
10 Dec 3.9 05:22:20 14° W 05:23:50 22° SW 05:25:51 10° S visible
11 Dec 6.0 03:54:25 11° ESE 03:54:25 11° ESE 03:54:35 10° ESE visible
11 Dec 4.8 05:24:53 10° WSW 05:25:37 11° SW 05:26:20 10° SSW visible
